Flag for U.S.A. Weather past 2 weeks in Scranton, Pennsylvania, U.S.A.

Now
38 °F

Mostly cloudy.


Feels Like: 34 °F
Forecast: 35 / 44 °F
Wind: 5 mph from North

Location: Barre - Scranton - Wilkes-Barre / Scranton International Airport

Current Time: Mar 27, 2015 at 4:14:15 AM

Latest Report: Mar 27, 2015 at 3:54 AM


Visibility: 8 mi

Pressure: 29.77 "Hg

Humidity: 79%

Dew point: 32 °F

Location of ScrantonLocation

Historic Weather in Scranton — Graph

°F

Scranton temperature yesterday

Maximum temperature yesterday: 60 °F (at 2:54 PM)
Minimum temperature yesterday: 35 °F (at 6:54 AM)
Average temperature yesterday: 44 °F

Past Weeks' High & Low Weather Summary

 TemperatureHumidityPressure
High60 °F (Mar 26, 2:54 PM)93% (Mar 14, 9:54 AM)30.61 "Hg (Mar 14, 9:54 AM)
Low16 °F (Mar 24, 6:54 AM)17% (Mar 13, 12:54 PM)29.59 "Hg (Mar 17, 6:54 AM)
Average35 °F58%30.11 "Hg
* Reported Mar 12 2:54 AM — Mar 27 2:54 AM, Scranton, Weather by CustomWeather, © 2015

Note: Actual official high and low records may vary slightly from our data, if they occured in-between our weather recording intervals... More about our weather records

Advertising

Scranton weather history for previous 24 hours

 ConditionsComfort  
Time TempWeatherWind HumidityBarometerVisibility
2:54 AM
Fri, Mar 27
38 °FMostly cloudy.7 mph79%29.78 "Hg8 mi
1:54 AM38 °FOvercast.15 mph79%29.77 "Hg10 mi
12:54 AM39 °FOvercast.10 mph82%29.76 "Hg10 mi
11:54 PM
Thu, Mar 26
39 °FLow clouds.6 mph86%29.76 "Hg10 mi
10:54 PM40 °FOvercast.9 mph86%29.73 "Hg10 mi
9:54 PM41 °FOvercast.7 mph86%29.74 "Hg10 mi
8:54 PM41 °FOvercast.7 mph89%29.73 "Hg10 mi
7:54 PM42 °FRain. Fog.9 mph85%29.74 "Hg6 mi
6:54 PM43 °FLight rain. Mostly cloudy.8 mph82%29.70 "Hg5 mi
5:54 PM45 °FLight rain. Mostly cloudy.14 mph82%29.67 "Hg6 mi
4:54 PM54 °FOvercast.9 mph77%29.62 "Hg4 mi
3:54 PM57 °FOvercast.10 mph74%29.60 "Hg4 mi
2:54 PM60 °FOvercast.15 mph69%29.62 "Hg8 mi
1:54 PM56 °FMostly cloudy.5 mph72%29.67 "Hg6 mi
12:54 PM50 °FLight rain. Overcast.3 mph77%29.74 "Hg4 mi
11:54 AM53 °FOvercast.5 mph69%29.76 "Hg5 mi
10:54 AM45 °FOvercast.5 mph74%29.83 "Hg4 mi
9:54 AM44 °FMostly cloudy.3 mph73%29.87 "Hg4 mi
8:54 AM42 °FOvercast.5 mph79%29.89 "Hg4 mi
7:54 AM36 °FFog.7 mph89%29.91 "Hg3 mi
6:54 AM35 °FFog.3 mph92%29.95 "Hg4 mi
5:54 AM36 °FFog.3 mph89%29.99 "Hg4 mi
4:54 AM37 °FFog.No wind86%29.99 "Hg4 mi
Weather by CustomWeather, © 2015

See weather overviewHow to use our weather pages